Location: Fort Worth, Tx
(32.7431°N, 97.3695°W)
Time: 09:12:51
(UTC-04:00)

A-11 Canister half - Pass Details

Date: 22 August 2024
Orbit: 1524 x 1684 km, 47.3° (Epoch: 13 September)

Event Time Altitude Azimuth Distance (km) Brightness Sun altitude
Rises 23:10:56 0° 255° (WSW) 4,838 12.2 -24.9°
Reaches altitude 10° 23:14:11 10° 261° (W) 3,873 11.7 -25.5°
Maximum altitude 23:23:47 51° 335° (NNW) 2,025 9.8 -27.1°
Drops below altitude 10° 23:33:38 10° 50° (NE) 3,950 11.0 -28.8°
Sets 23:36:59 0° 56° (NE) 4,939 11.5 -29.3°
